User: anonymous   Login
Location: Unspecified
(0.0000°N, 0.0000°E)
Time: 18:18:13
(UTC+00:00)
Language:

A-11 Canister half - Orbit

View from above orbital plane
View from above orbital plane
View from above satellite
View from above satellite

Ground track
Ground track

The orbit data is extracted from the following two-line orbital elements,

1    51U 60009C   19107.35475989 -.00000137 +00000-0 -50944-3 0  9997
2    51 047.2118 228.7526 0104373 332.7593 026.7746 12.18270558612025
Epoch (UTC): 17 April 2019 08:30:51
Eccentricity: 0.0104373
inclination: 47.2118°
perigee height: 1517 km
apogee height: 1683 km
right ascension of ascending node: 228.7526°
argument of perigee: 332.7593°
revolutions per day: 12.18270558
mean anomaly at epoch: 26.7746°
orbit number at epoch: 61202

The dashed part of the orbit path shows where the satellite is in the earth's shadow,  

DLR